Regional Weather Roundup
Issued by NWS

Home | Current Version | Previous Version | Graphics & Text | Print | Product List | Glossary On
Versions: 1 2 3 4 5 6 7 8 9 10 11 12 13 14 15 16 17 18 19 20 21 22 23 24 25 26 27 28 29 30 31 32 33 34 35 36 37 38 39 40 41 42 43 44 45 46 47 48 49 50
000
ASUS45 KTFX 011804
RWRMT
MONTANA HOURLY WEATHER ROUNDUP
NATIONAL WEATHER SERVICE GREAT FALLS MT
1204 PM MDT WED APR 1 2015

NOTE: "FAIR" INDICATES FEW OR NO CLOUDS BELOW 12000 FEET WITH NO
SIGNIFICANT WEATHER AND/OR OBSTRUCTIONS TO VISIBILITY.

* THESE STATIONS ARE NOT UNDER NWS QUALITY CONTROL. THEY DO NOT
   REPORT WEATHER SUCH AS PRECIPITATION OR FOG.

MTZ001>007-043-011900-
WEST OF THE DIVIDE
CITY           SKY/WX    TMP DP  RH WIND       PRES   REMARKS
KALISPELL      CLOUDY    45  18  34 W10G18    29.96F
MISSOULA       CLOUDY    41  21  45 NW14G20   30.06F
BUTTE          CLOUDY    36  12  37 NW15      29.96F WCI  27
MULLAN PASS    CLOUDY    25  19  78 N/A       30.00S
* ESSEX        N/A       38  20  48 S6G19      N/A   WCI  33
* LINCOLN      N/A       38  17  42 SW10G25    N/A   WCI  31
* LOOKOUT PASS N/A       32  22  67 SE6G11     N/A   WCI  26
* POLSON       N/A       42  23  47 W3G9       N/A
* RONAN APT    PTCLDY    39  21  48 S11        N/A   WCI  32
* SEELEY LAKE  N/A       38  21  50 W9G21      N/A   WCI  32
* THOMP F APT  PTCLDY    32  10  40 S4G14      N/A
$$

MTZ008-052>055-011900-
SOUTHWEST MONTANA
CITY           SKY/WX    TMP DP  RH WIND       PRES   REMARKS
BOZEMAN        PTSUNNY   43  19  38 SW21G31   29.95F
DILLON         PTSUNNY   39  14  36 W17G30    29.98F WCI  30
* W YELLOWSTON PTSUNNY   35  22  59 SW5G15     N/A   WCI  31
* THREE FORKS  PTCLDY    45  12  26 W18G30     N/A
* TWIN BRIDGES PTSUNNY   39  12  33 SE7        N/A   WCI  34
* BOULDER HILL N/A       35  14  42 S14G32     N/A   WCI  26
* HOMESTAKE PS N/A       30  10  43 NW8G18     N/A   WCI  22
* MONIDA PASS  N/A       32   9  38 W13G22     N/A   WCI  22
* RAYNOLDS PAS N/A       31  26  82 NE1G11     N/A
* WHITEHALL    N/A       42  16  35 SW8        N/A
* WISE RIVER   N/A       36  14  40 W15G23     N/A   WCI  27
$$

MTZ009>010-012-014-046-048-049-054-011900-
EAST SLOPES AND CENTRAL MONTANA
CITY           SKY/WX    TMP DP  RH WIND       PRES   REMARKS
CUT BANK       SUNNY     45  14  28 W35G40    29.79F
GREAT FALLS    PTSUNNY   46  10  23 W29G38    29.83F
HELENA         PTSUNNY   45  14  28 W17G40    29.94R
MALMSTROM AFB  PTSUNNY   45  10  24 W24G36    29.85F
* DEARBORN     N/A       43  13  29 NE21G39    N/A
* EAST GLACIER N/A       33  18  54 W20G29     N/A   WCI  21
* MONARCH      N/A       36  12  37 W27G35     N/A   WCI  24
* PENDROY      N/A       41  16  36 NW31G43    N/A
* ROGERS PASS  N/A       33  12  42 SE13G31    N/A   WCI  24
* SAINT MARY   N/A       37  18  46 SW10G24    N/A   WCI  30
* SWEET GRASS  N/A       43   8  24 NW27G39    N/A
$$

MTZ011-013-016-021-035-040-045-047-050-051-011900-
NORTH CENTRAL MONTANA
CITY           SKY/WX    TMP DP  RH WIND       PRES   REMARKS
HAVRE          PTSUNNY   46  30  54 SW13      29.78F
LEWISTOWN      CLOUDY    43  16  34 W18G37    29.82F
* N BAR RANCH  PTSUNNY   43  10  26 W24G33    29.82F
* CHESTER      N/A       46  15  29 NW22G36    N/A
* DENTON       N/A       45  19  35 W34G42     N/A
* GEYSER       N/A       43  17  35 W29G37     N/A
* JUDITH GAP   N/A       41  12  30 NW16G30    N/A
* LOMA         N/A       49  13  23 SW24G35    N/A
$$

MTZ017>020-022>027-061-062-011900-
NORTHEAST MONTANA
CITY           SKY/WX    TMP DP  RH WIND       PRES   REMARKS
GLASGOW        PTSUNNY   52  27  38 NW21G29   29.71F
GLENDIVE       SUNNY     52  28  40 W36G43    29.70S
JORDAN         PTCLDY    50  18  28 W28G36    29.76S
SIDNEY         PTCLDY    54  28  37 W22G33    29.66R
WOLF POINT     PTCLDY    54  28  37 W25G38    29.69F
* BEAVER HILL  N/A       50  27  41 W34G44     N/A
* CIRCLE       N/A       50  31  48 W13G32     N/A
* LINDSAY DVD  N/A       48  27  44 NW29G42    N/A
* NAVAJO       N/A       46  29  52 NW30G40    N/A
* SACO         N/A       49  27  43 W16G24     N/A
$$

MTZ028>042-056>058-011900-
SOUTHCENTRAL AND SOUTHEAST MONTANA
CITY           SKY/WX    TMP DP  RH WIND       PRES   REMARKS
BAKER          CLOUDY    52  19  27 W30G38    29.72R
BILLINGS       PTSUNNY   48  12  23 W25G30    29.87S
LIVINGSTON     PTCLDY    45  16  31 W33G43    29.91R
MILES CITY     LGT RAIN  61  18  19 NW29G38   29.78R
* LAUREL APT   PTCLDY    48  16  28 W21G36     N/A
* ALZADA       N/A       45  26  47 W22        N/A
* HYSHAM       N/A       46  18  33 NW17G28    N/A
* LAME DEER    N/A       40  24  53 NW17G26    N/A   WCI  31
* REED POINT   N/A       47  19  33 W32G46     N/A
* ROSCOE HILL  N/A       45  -1  14 W9G21      N/A
$$

REGIONAL REPORTS...DAKOTAS
CITY           SKY/WX    TMP DP  RH WIND       PRES   REMARKS
WILLISTON      PTSUNNY   52  34  50 W24G33    29.63R
DICKINSON      PTSUNNY   55  25  31 NW37G49   29.61R
CROSBY         CLOUDY    45  37  74 W24G32    29.59R
WATFORD CITY   PTSUNNY   52  32  47 W25G37    29.60R
BISMARCK       PTSUNNY   59  32  36 NW24G39   29.54R
GRAND FORKS    PTSUNNY   63  37  38 S14       29.33F
FARGO          SUNNY     70  37  30 S21G28    29.34F
BUFFALO SD     PTCLDY    54  21  27 NW41G51   29.64R
RAPID CITY     PTCLDY    57  34  42 N35G41    29.68S
$$

REGIONAL REPORTS...WYOMING/IDAHO/WASHINGTON
CITY           SKY/WX    TMP DP  RH WIND       PRES   REMARKS
GILLETTE       CLOUDY    37  28  70 N20       29.86R WCI  27
SHERIDAN       CLOUDY    48  18  30 NW21      29.87S
CODY           PTCLDY    45  18  34 W14G20    29.88F
YELLOWSTONE LA PTSUNNY   30  10  43 W14G22    29.96S WCI  19
SALMON         PTSUNNY   39  27  62 N8        30.05F WCI  33
MULLAN PASS    CLOUDY    25  19  78 N/A       30.00S
SAND POINT     PTCLDY    46  28  50 SW10G16   30.08F
SPOKANE        PTSUNNY   41  32  70 SW13      30.12S

$$




USA.gov is the U.S. government's official web portal to all federal, state and local government web resources and services.